Content
SEND FEEDBACK

Daily
Averages
Monthly
Summary
United States of America

PYGA BEACH, GUAM


Home > North America > United States > Guam
Elevation: 6 meters     Latitude: 13 17N     Longitude: 144 39E

WEATHER
 
SELECT A DAY
Number of Records: 342,273;   Date Range: 1/1/95 - 8/30/14
 
SHARE

PRINT THIS DATA

[ ← Previous Day ]
WEATHER ALMANAC - 19 JUNE, 2013
[ Next Day → ]
[ °F ]   °C
Weather ElementAverageHighLow
Temperature28.3 °C31.3 °C (10:55 am)26.7 °C (5:55 am)
Dewpoint25.6 °C27 °C (2:58 pm)24.5 °C (2:55 am)
Humidity85.1 %94 % (1:26 am)70 % (1:11 pm)
Barometer1010.2 hPa1011.9 hPa (9:55 pm)1008.8 hPa (2:51 pm)
Wind Speed23.8 km/h31.5 km/h (12:28 pm)
Wind Gust38.9 km/h (2:51 pm)
Weather ElementAverage
Visibility15.8 km
Wind DirectionENE (76.3 °)

Weather ElementTotal
Precipitation---
Cooling Degree Days10.7 (Base 18.3)
Growing Degree Days19 (Base 10)
Averaged from 72 records on 19 June, 2013
WEATHER CONDITIONS BREAKOUT
WIND DIRECTION BREAKOUT
WEATHER BY HOUR - 19 JUNE, 2013
[ °F ]   °C
Local TimeTemperatureDewpointHumidityBarometerVisibilityWind DirectionWind SpeedGust SpeedPrecipitationEventsConditions
12:16 AM27 °C25 °C89 %1010.8 hPa16.1 kmENE (70°)22.2 km/hMostly Cloudy
12:21 AM27 °C25 °C89 %1010.8 hPa16.1 kmEast (80°)20.4 km/hScattered Clouds
12:44 AM27 °C25 °C89 %1010.8 hPa16.1 kmEast (80°)20.4 km/hMostly Cloudy
12:55 AM27.1 °C25 °C88 %1010.5 hPa16.1 kmEast (80°)18.5 km/hMostly Cloudy
1:04 AM27 °C25 °C89 %1010.5 hPa16.1 kmEast (90°)20.4 km/hScattered Clouds
1:23 AM27 °C25 °C89 %1010.5 hPa16.1 kmENE (70°)18.5 km/hMostly Cloudy
1:26 AM27 °C26 °C94 %1010.5 hPa16.1 kmENE (70°)27.8 km/hScattered Clouds
1:27 AM27 °C25 °C89 %1010.5 hPa16.1 kmENE (70°)25.9 km/hMostly Cloudy
1:29 AM27 °C25 °C89 %1010.5 hPa16.1 kmENE (70°)22.2 km/hScattered Clouds
1:55 AM27 °C25.2 °C90 %1010.5 hPa16.1 kmENE (70°)22.2 km/hPartly Cloudy
2:55 AM26.9 °C24.5 °C87 %1010.2 hPa16.1 kmENE (70°)25.9 km/hClear
3:55 AM26.9 °C24.6 °C87 %1010.2 hPa16.1 kmEast (80°)18.5 km/hScattered Clouds
3:58 AM27 °C25 °C89 %1010.5 hPa16.1 kmEast (80°)20.4 km/hMostly Cloudy
4:07 AM27 °C25 °C89 %1010.5 hPa16.1 kmENE (70°)24.1 km/hScattered Clouds
4:22 AM27 °C25 °C89 %1010.2 hPa16.1 kmEast (80°)18.5 km/hMostly Cloudy
4:39 AM27 °C25 °C89 %1010.2 hPa16.1 kmEast (90°)18.5 km/hMostly Cloudy
4:55 AM27.1 °C25.5 °C91 %1010.2 hPa16.1 kmENE (70°)22.2 km/hMostly Cloudy
5:00 AM27 °C26 °C94 %1010.2 hPa16.1 kmEast (80°)20.4 km/hMostly Cloudy
5:03 AM27 °C25 °C89 %1010.2 hPa16.1 kmEast (80°)18.5 km/hScattered Clouds
5:55 AM26.7 °C25.1 °C91 %1010.5 hPa16.1 kmEast (80°)18.5 km/h29.6 km/hScattered Clouds
6:10 AM27 °C25 °C89 %1010.5 hPa16.1 kmEast (80°)16.7 km/hMostly Cloudy
6:17 AM27 °C25 °C89 %1010.5 hPa16.1 kmENE (70°)20.4 km/hMostly Cloudy
6:21 AM27 °C25 °C89 %1010.8 hPa16.1 kmENE (70°)24.1 km/hMostly Cloudy
6:23 AM27 °C25 °C89 %1010.8 hPa16.1 kmEast (80°)22.2 km/hMostly Cloudy
6:26 AM27 °C25 °C89 %1010.8 hPa16.1 kmEast (80°)22.2 km/hScattered Clouds
6:55 AM27.3 °C24.6 °C85 %1011.2 hPa16.1 kmEast (80°)18.5 km/hPartly Cloudy
7:55 AM28.3 °C25.1 °C83 %1011.5 hPa16.1 kmEast (80°)16.7 km/hPartly Cloudy
8:55 AM29.6 °C24.9 °C76 %1011.5 hPa16.1 kmENE (70°)25.9 km/hScattered Clouds
9:55 AM30.4 °C25.6 °C75 %1011.2 hPa16.1 kmEast (80°)24.1 km/hPartly Cloudy
10:55 AM31.3 °C25.8 °C72 %1011.2 hPa16.1 kmENE (70°)25.9 km/h33.3 km/hPartly Cloudy
11:37 AM30 °C26 °C79 %1010.8 hPa16.1 kmENE (70°)25.9 km/hMostly Cloudy
11:39 AM30 °C26 °C79 %1010.8 hPa16.1 kmEast (80°)24.1 km/hScattered Clouds
11:55 AM31.3 °C25.9 °C73 %1010.5 hPa16.1 kmENE (70°)25.9 km/h35.2 km/hScattered Clouds
12:07 PM30 °C26 °C79 %1010.2 hPa16.1 kmENE (70°)24.1 km/hLight Drizzle
12:09 PM30 °C26 °C79 %1010.2 hPa16.1 kmEast (80°)25.9 km/hLight Drizzle
12:17 PM30 °C26 °C79 %1010.2 hPa16.1 kmENE (70°)27.8 km/h33.3 km/hMostly Cloudy
12:28 PM31 °C26 °C75 %1010.2 hPa16.1 kmENE (70°)31.5 km/hMostly Cloudy
12:55 PM31.3 °C25.6 °C72 %1009.8 hPa16.1 kmENE (70°)27.8 km/h0 mmScattered Clouds
1:09 PM31 °C26 °C75 %1009.5 hPa16.1 kmENE (70°)29.6 km/hMostly Cloudy
1:11 PM31 °C25 °C70 %1009.5 hPa16.1 kmENE (70°)27.8 km/hScattered Clouds
1:55 PM30.9 °C25.1 °C71 %1009.1 hPa16.1 kmENE (70°)29.6 km/hClear
2:51 PM30 °C26 °C79 %1008.8 hPa12.9 kmEast (80°)29.6 km/h38.9 km/hRainLight Rain
2:55 PM29.2 °C26.8 °C87 %1009.1 hPa12.9 kmEast (80°)25.9 km/h38.9 km/h0 mmLight Drizzle
2:58 PM29 °C27 °C89 %1009.1 hPa12.9 kmENE (70°)29.6 km/h38.9 km/hLight Drizzle
3:00 PM29 °C27 °C89 %1009.1 hPa14.5 kmENE (70°)31.5 km/hRainLight Rain
3:01 PM29 °C27 °C89 %1009.1 hPa16.1 kmENE (70°)29.6 km/hMostly Cloudy
3:03 PM29 °C26 °C84 %1009.1 hPa16.1 kmEast (80°)31.5 km/hMostly Cloudy
3:05 PM29 °C26 °C84 %1009.1 hPa16.1 kmEast (80°)27.8 km/hMostly Cloudy
3:07 PM29 °C26 °C84 %1008.8 hPa16.1 kmENE (70°)29.6 km/hMostly Cloudy
3:25 PM30 °C26 °C79 %1008.8 hPa16.1 kmENE (70°)27.8 km/hRainLight Rain
3:37 PM29 °C26 °C84 %1008.8 hPa16.1 kmENE (70°)25.9 km/hMostly Cloudy
3:48 PM30 °C26 °C79 %1009.1 hPa16.1 kmEast (80°)29.6 km/hScattered Clouds
3:55 PM30 °C25.7 °C78 %1009.1 hPa16.1 kmEast (80°)27.8 km/h0 mmScattered Clouds
4:55 PM29.9 °C25.6 °C78 %1009.1 hPa16.1 kmENE (70°)27.8 km/hScattered Clouds
4:56 PM30 °C26 °C79 %1009.1 hPa16.1 kmENE (70°)29.6 km/hMostly Cloudy
5:07 PM29 °C25 °C79 %1009.1 hPa16.1 kmEast (90°)22.2 km/hMostly Cloudy
5:34 PM29 °C26 °C84 %1009.8 hPa16.1 kmEast (80°)18.5 km/hMostly Cloudy
5:37 PM28 °C26 °C89 %1009.8 hPa16.1 kmENE (70°)16.7 km/hMostly Cloudy
5:42 PM29 °C26 °C84 %1009.8 hPa16.1 kmEast (90°)18.5 km/hMostly Cloudy
5:45 PM28 °C26 °C89 %1009.8 hPa11.3 kmEast (100°)16.7 km/hRainLight Rain
5:49 PM28 °C26 °C89 %1009.8 hPa9.7 kmEast (100°)14.8 km/hRainLight Rain
5:55 PM27.3 °C26.3 °C94 %1010.2 hPa16.1 kmEast (90°)20.4 km/h0 mmMostly Cloudy
6:03 PM27 °C26 °C94 %1010.2 hPa16.1 kmEast (80°)22.2 km/hMostly Cloudy
6:08 PM27 °C25 °C89 %1010.2 hPa16.1 kmEast (80°)29.6 km/hScattered Clouds
6:55 PM27.5 °C25 °C86 %1010.5 hPa16.1 kmEast (80°)25.9 km/hPartly Cloudy
7:55 PM27.5 °C25 °C86 %1011.2 hPa16.1 kmENE (70°)27.8 km/hPartly Cloudy
8:55 PM27.4 °C25.1 °C87 %1011.5 hPa16.1 kmEast (80°)24.1 km/hClear
9:55 PM27.2 °C25.2 °C89 %1011.9 hPa16.1 kmENE (70°)24.1 km/hClear
10:55 PM27.1 °C25.4 °C90 %1011.9 hPa16.1 kmENE (70°)22.2 km/hScattered Clouds
11:53 PM27 °C26 °C94 %1011.9 hPa16.1 kmENE (70°)20.4 km/hMostly Cloudy
11:55 PM27.2 °C25.8 °C92 %1011.5 hPa16.1 kmENE (70°)22.2 km/hMostly Cloudy
11:58 PM27 °C26 °C94 %1011.5 hPa16.1 kmEast (80°)25.9 km/hMostly Cloudy
Hourly data recorded from PGUA, located 0 kilometers away from Pyga Beach, Guam







STORIES FROM OUR PARTNERS